Flag for Poland Past Weather in Dąbrowa Górnicza, Poland — Yesterday and Last 2 Weeks

Now
81 °F

Passing clouds.


Feels Like: 81 °F
Forecast: 57 / 84 °F
Wind: 12 mph from Southwest

Location: Katowice Airport

Current Time: Aug 27, 2016 at 3:35:57 PM

Latest Report: Aug 27, 2016 at 3:00 PM


Visibility: N/A

Pressure: 30.18 "Hg

Humidity: 45%

Dew Point: 57 °F

Location of Dąbrowa GórniczaLocation

Past Weather in Dąbrowa Górnicza — Graph

°F

Dąbrowa Górnicza Temperature Yesterday

Maximum temperature yesterday: 79 °F (at 2:00 PM)
Minimum temperature yesterday: 52 °F (at 12:30 AM)
Average temperature yesterday: 66 °F

High & Low Weather Summary for the Past Weeks

 TemperatureHumidityPressure
High81 °F (Aug 20, 4:30 PM)100% (Aug 15, 3:00 AM)30.33 "Hg (Aug 15, 3:00 AM)
Low45 °F (Aug 23, 5:30 AM)37% (Aug 26, 4:30 PM)29.83 "Hg (Aug 18, 4:30 PM)
Average63 °F77%30.13 "Hg
* Reported Aug 12 2:00 PM — Aug 27 2:30 PM, Dąbrowa Górnicza, Weather by CustomWeather, © 2016

Note: Actual official high and low records may vary slightly from our data, if they occured in-between our weather recording intervals... More about our weather records

Advertising

Dąbrowa Górnicza Weather History for the Previous 24 Hours

Scroll right to see more
 ConditionsComfort  
Time TempWeatherWind HumidityBarometerVisibility
2:30 PM
Sat, Aug 27
81 °FPassing clouds.9 mph42%30.18 "HgN/A
2:00 PM81 °FPassing clouds.10 mph45%30.18 "HgN/A
1:30 PM79 °FPassing clouds.12 mph45%30.18 "HgN/A
1:00 PM79 °FPassing clouds.12 mph45%30.21 "HgN/A
12:30 PM79 °FPassing clouds.12 mph51%30.21 "HgN/A
12:00 PM77 °FPassing clouds.12 mph51%30.21 "HgN/A
11:30 AM77 °FPassing clouds.13 mph51%30.21 "HgN/A
11:00 AM75 °FPassing clouds.12 mph50%30.21 "HgN/A
10:30 AM75 °FPassing clouds.9 mph57%30.21 "HgN/A
10:00 AM75 °FPassing clouds.8 mph57%30.21 "HgN/A
9:30 AM73 °FPassing clouds.7 mph61%30.21 "HgN/A
9:00 AM72 °FPassing clouds.6 mph69%30.21 "HgN/A
8:30 AM70 °FPassing clouds.3 mph69%30.21 "HgN/A
8:00 AM66 °FSunny.3 mph78%30.21 "Hg10 mi
7:30 AM63 °FSunny.3 mph88%30.21 "Hg10 mi
7:00 AM57 °FSunny.5 mph94%30.21 "Hg10 mi
6:30 AM54 °FClear.5 mph94%30.21 "Hg5 mi
6:00 AM52 °FClear.3 mph100%30.21 "Hg4 mi
5:30 AM54 °FClear.5 mph94%30.21 "Hg6 mi
5:00 AM54 °FClear.5 mph94%30.21 "Hg4 mi
4:30 AM54 °FClear.5 mph94%30.21 "Hg5 mi
4:00 AM54 °FClear.5 mph94%30.21 "Hg5 mi
3:30 AM54 °FClear.5 mph100%30.21 "Hg5 mi
3:00 AM55 °FClear.3 mph94%30.21 "Hg5 mi
2:30 AM54 °FClear.5 mph100%30.21 "Hg5 mi
2:00 AM54 °FClear.2 mph100%30.21 "Hg10 mi
1:30 AM55 °FClear.5 mph94%30.18 "Hg10 mi
1:00 AM55 °FClear.5 mph94%30.18 "Hg10 mi
12:30 AM57 °FClear.2 mph94%30.18 "Hg10 mi
12:00 AM57 °FClear.2 mph94%30.18 "Hg10 mi
11:30 PM
Fri, Aug 26
64 °FClear.7 mph73%30.18 "Hg10 mi
11:00 PM59 °FPassing clouds.6 mph82%30.18 "HgN/A
10:30 PM68 °FClear.8 mph69%30.18 "Hg10 mi
10:00 PM66 °FClear.8 mph73%30.18 "Hg10 mi
9:30 PM63 °FClear.8 mph83%30.18 "Hg10 mi
9:00 PM68 °FClear.7 mph73%30.18 "Hg10 mi
8:30 PM63 °FSunny.7 mph88%30.18 "Hg10 mi
8:00 PM66 °FSunny.6 mph78%30.18 "Hg10 mi
7:30 PM73 °FSunny.6 mph61%30.18 "Hg10 mi
7:00 PM75 °FSunny.6 mph57%30.18 "Hg10 mi
6:30 PM77 °FSunny.7 mph51%30.18 "Hg10 mi
6:00 PM79 °FPassing clouds.7 mph45%30.18 "HgN/A
5:30 PM79 °FPassing clouds.8 mph45%30.18 "HgN/A
5:00 PM79 °FSunny.9 mph42%30.18 "Hg10 mi
4:30 PM79 °FPassing clouds.8 mph37%30.18 "HgN/A
4:00 PM79 °FPassing clouds.8 mph39%30.18 "HgN/A
3:30 PM79 °FPassing clouds.9 mph42%30.18 "HgN/A
3:00 PM79 °FPassing clouds.8 mph42%30.21 "HgN/A
Weather by CustomWeather, © 2016

See weather overviewHow to use our weather pages